Simultaneous Nadir Overpasses (SNOs) Predictions

Prediction of SNOs between LANDSAT-8 and METOP-A Satellite Orbit:

Table of predicted SNOs for the next 14.0 days since TLE Epoch: 7/20/2014
Index Date (LANDSAT-8) Time (LANDSAT-8) Lat,Lon (LANDSAT-8) SZA (LANDSAT-8 ) Date (METOP-A) Time (METOP-A) Lat,Lon (METOP-A) SZA (METOP-A ) Distance(km) Time Diff (sec)
1 07/20/2014 20:36:11 81.10, -89.42 62.52 07/20/2014 20:35:52 81.10, -89.51 62.50 1.53 19
2 07/20/2014 21:25:37 -81.12, 78.54 117.43 07/20/2014 21:26:31 -81.12, 78.62 117.40 1.37 54
3 07/23/2014 16:10:26 81.10, -22.97 63.07 07/23/2014 16:10:17 81.10, -23.16 63.05 3.30 9
4 07/23/2014 16:59:52 -81.12, 145.01 116.87 07/23/2014 17:00:56 -81.12, 145.01 116.85 0.06 64
5 07/26/2014 10:55:16 -81.07,-124.62 116.41 07/26/2014 10:54:03 -81.08,-124.65 116.44 0.69 73
6
